Погода в Кошалине

Польша     54°11′26″N   16°10′54″E
темп.,
°C
ветер,
м/с
пор.,
м/с
влажн.,
%
обл.,
%
осадки,
мм/ч
давл.,
гПа
погр.,
м
1 марта, пн
пн101:00+2зюз34957 0.0 103470
04:00+2зюз349613 0.0 103385
07:00+1зюз369615 0.0 1034122
10:00+4зюз46847 0.0 1034315
13:00+7з57764 0.0 1034399
16:00+6з59842 0.0 1032364
19:00+4з49921 0.0 1033235
22:00+3зюз48910 0.0 1033171
2 марта, вт
вт201:00+3зюз48920 0.0 1033179
04:00+3зюз49930 0.0 1031214
07:00+3з59930 0.0 1032224
10:00+6з69770 0.0 1032373
13:00+6зсз58740 0.0 1033402
16:00+5зсз46790 0.0 1032326
19:00+3зсз22900 0.0 103229
22:00+2юз12920 0.0 103322
3 марта, ср
ср301:00+2ююз23920 0.0 103343
04:00+1ююз33920 0.0 103059
07:00+1юз33890 0.0 102970
10:00+5юз34680 0.0 1028227
13:00+9юз35600 0.0 1026391
16:00+9зюз26670 0.0 1022422
19:00+6юз35850 0.0 102090
22:00+5зюз510900 0.0 1018242
4 марта, чт
чт401:00+4з511930 0.0 1016334
04:00+3з6119624 0.0 1014372
07:00+3з7108958 0.0 1012636
10:00+3зсз6886100 0.1 1012744
13:00+3зсз5684100 0.3 1012616
16:00+2ссв5795100 0.3 1011421
19:00+1св81196100 0.6 1013686
22:00+1ссв588199 0.1 1015759
5 марта, пт
пт501:000ссв587565 0.2 1016482
04:000с477220 0.1 1017430
07:00+1с476434 0.4 1019450
10:00+3с575323 0.3 10201430
13:00+3сз565813 0.4 10211150
16:00+2сз56600 0.2 10211270
19:000ссз466531 0.3 1023482
22:000ссв596158 0.3 1025711